Location: Dompnac
(44.5644°N, 4.1026°E)
Time: 17:24:10
(UTC+00:00)

Cosmos 1634 Rocket - Pass Details

Date: 25 January 2021
Orbit: 961 x 991 km, 82.9° (Epoch: 05 March)

Event Time Altitude Azimuth Distance (km) Brightness Sun altitude
Rises 04:08:34 0° 142° (SE) 3,632 7.4 -32.1°
Reaches altitude 10° 04:11:44 10° 126° (SE) 2,691 6.9 -31.6°
Maximum altitude 04:15:59 20° 82° (E) 2,071 6.4 -30.8°
Drops below altitude 10° 04:20:15 10° 37° (NE) 2,710 6.8 -30.0°
Sets 04:23:26 0° 22° (NNE) 3,665 7.3 -29.5°
